Total_Precipitation_Accumulation
0.39 0.39 0.39 0.39 0.31 0.28 0.34 0.42 0.70 0.99 1.32 1.62 1.68 1.73 1.80 1.94 1.86 1.62 1.46 1.30 1.16 1.13 1.17 1.13 1.08 1.06 1.06 1.12 1.13 1.21 1.26 1.25 1.18 1.10 1.07 1.03 0.94 0.85 0.75 0.68 0.66 0.66 0.60 0.54
0.38 0.34 0.43 0.40 0.39 0.39 0.44 0.52 0.74 1.08 1.51 1.72 1.72 1.70 1.77 1.86 1.77 1.59 1.36 1.21 1.13 1.11 1.17 1.13 1.07 1.02 0.98 1.04 1.07 1.13 1.17 1.14 1.09 1.03 1.02 0.96 0.91 0.86 0.77 0.67 0.62 0.60 0.56 0.53
0.58 0.38 0.57 0.81 0.61 0.61 0.66 0.68 0.86 1.25 1.47 1.53 1.64 1.64 1.69 1.79 1.86 1.74 1.49 1.40 1.40 1.42 1.39 1.27 1.14 1.05 1.02 1.06 1.09 1.12 1.16 1.10 1.08 1.04 0.97 0.91 0.77 0.72 0.71 0.67 0.57 0.53 0.49 0.47
0.58 0.70 1.13 1.01 0.56 0.61 0.71 0.74 0.79 0.93 1.07 1.24 1.36 1.41 1.56 1.75 1.86 1.83 1.72 1.68 1.69 1.63 1.48 1.35 1.23 1.16 1.11 1.06 1.11 1.17 1.12 1.04 0.95 0.93 0.88 0.81 0.76 0.68 0.63 0.61 0.57 0.55 0.54 0.49
0.79 1.06 1.23 1.00 0.60 0.55 0.80 0.96 0.77 0.80 0.82 0.85 0.89 1.05 1.43 1.61 1.66 1.68 1.70 1.64 1.54 1.46 1.38 1.30 1.20 1.14 1.05 1.01 0.99 1.00 0.96 0.88 0.79 0.77 0.84 0.83 0.76 0.71 0.64 0.60 0.57 0.53 0.52 0.47
0.89 1.20 1.46 1.21 0.57 0.38 0.69 1.30 0.91 0.81 0.82 0.84 0.95 1.17 1.28 1.24 1.23 1.26 1.29 1.30 1.30 1.27 1.20 1.14 1.06 0.96 0.90 0.91 0.90 0.87 0.85 0.81 0.70 0.67 0.73 0.79 0.73 0.67 0.59 0.55 0.53 0.46 0.45 0.46
0.88 1.13 1.28 0.72 0.42 0.54 1.18 1.51 1.02 0.87 0.85 0.93 1.08 1.06 0.86 0.80 0.87 0.98 1.05 1.08 1.10 1.14 1.14 1.02 0.87 0.81 0.83 0.83 0.81 0.69 0.69 0.73 0.72 0.68 0.66 0.65 0.66 0.66 0.60 0.54 0.53 0.51 0.50 0.50
0.90 1.22 1.34 0.57 0.46 0.84 1.00 0.78 0.77 0.79 0.77 0.78 0.74 0.63 0.60 0.62 0.66 0.71 0.82 0.93 0.92 0.93 0.91 0.83 0.78 0.79 0.81 0.78 0.69 0.63 0.69 0.75 0.73 0.68 0.57 0.57 0.66 0.68 0.61 0.55 0.51 0.50 0.52 0.53
0.94 1.10 0.82 0.42 0.45 0.52 0.51 0.58 0.59 0.58 0.56 0.51 0.51 0.47 0.46 0.53 0.59 0.63 0.68 0.75 0.75 0.72 0.75 0.79 0.81 0.82 0.80 0.74 0.64 0.66 0.70 0.72 0.70 0.65 0.60 0.60 0.64 0.66 0.63 0.57 0.48 0.45 0.48 0.51
0.62 0.64 0.43 0.34 0.32 0.32 0.35 0.43 0.46 0.49 0.54 0.47 0.47 0.47 0.45 0.48 0.56 0.63 0.65 0.63 0.63 0.65 0.66 0.72 0.72 0.69 0.66 0.58 0.58 0.66 0.70 0.67 0.65 0.67 0.67 0.61 0.57 0.54 0.51 0.48 0.43 0.41 0.42 0.42
0.60 0.49 0.42 0.40 0.33 0.27 0.29 0.35 0.39 0.45 0.53 0.53 0.50 0.54 0.51 0.50 0.55 0.60 0.63 0.62 0.64 0.65 0.65 0.63 0.61 0.57 0.54 0.54 0.59 0.65 0.64 0.59 0.59 0.63 0.62 0.57 0.48 0.41 0.37 0.31 0.23 0.24 0.26 0.26
0.60 0.46 0.48 0.43 0.31 0.28 0.35 0.38 0.39 0.43 0.53 0.50 0.48 0.54 0.58 0.58 0.55 0.53 0.56 0.57 0.59 0.56 0.57 0.56 0.52 0.51 0.51 0.50 0.50 0.57 0.57 0.52 0.49 0.50 0.49 0.43 0.39 0.34 0.26 0.18 0.14 0.11 0.11 0.12
0.32 0.29 0.29 0.29 0.31 0.38 0.44 0.43 0.48 0.51 0.47 0.40 0.45 0.50 0.55 0.59 0.52 0.49 0.48 0.48 0.50 0.46 0.47 0.49 0.47 0.49 0.48 0.42 0.43 0.49 0.50 0.46 0.40 0.35 0.38 0.36 0.32 0.31 0.33 0.21 0.12 0.08 0.07 0.09
0.27 0.31 0.38 0.43 0.49 0.50 0.47 0.42 0.41 0.40 0.38 0.36 0.41 0.46 0.47 0.49 0.44 0.43 0.46 0.44 0.39 0.39 0.40 0.42 0.43 0.44 0.38 0.35 0.37 0.40 0.36 0.30 0.28 0.30 0.30 0.27 0.24 0.22 0.24 0.29 0.26 0.21 0.12 0.08
0.35 0.38 0.44 0.43 0.43 0.39 0.35 0.32 0.32 0.33 0.34 0.37 0.37 0.39 0.40 0.42 0.42 0.38 0.38 0.35 0.34 0.37 0.39 0.35 0.33 0.36 0.34 0.33 0.33 0.32 0.29 0.26 0.24 0.23 0.22 0.21 0.18 0.15 0.14 0.17 0.24 0.27 0.24 0.15
0.28 0.26 0.28 0.30 0.29 0.28 0.28 0.29 0.29 0.29 0.30 0.32 0.33 0.34 0.34 0.33 0.31 0.28 0.26 0.28 0.38 0.43 0.40 0.33 0.27 0.28 0.28 0.32 0.34 0.32 0.27 0.21 0.18 0.16 0.15 0.14 0.12 0.11 0.12 0.14 0.17 0.22 0.22 0.16
0.25 0.25 0.25 0.22 0.19 0.20 0.22 0.21 0.18 0.19 0.21 0.25 0.26 0.22 0.22 0.22 0.24 0.25 0.26 0.29 0.33 0.33 0.31 0.29 0.23 0.20 0.22 0.28 0.30 0.24 0.18 0.15 0.12 0.10 0.11 0.09 0.08 0.07 0.09 0.10 0.14 0.16 0.14 0.10
0.24 0.20 0.18 0.17 0.15 0.15 0.16 0.13 0.12 0.15 0.17 0.18 0.17 0.17 0.18 0.20 0.23 0.24 0.25 0.26 0.28 0.27 0.23 0.20 0.18 0.19 0.18 0.19 0.22 0.19 0.15 0.14 0.10 0.07 0.06 0.07 0.06 0.06 0.06 0.08 0.10 0.10 0.10 0.09
0.18 0.12 0.10 0.11 0.10 0.11 0.12 0.10 0.10 0.12 0.12 0.12 0.13 0.14 0.15 0.17 0.17 0.18 0.19 0.23 0.26 0.26 0.22 0.15 0.14 0.15 0.13 0.13 0.15 0.13 0.11 0.12 0.11 0.07 0.06 0.05 0.05 0.04 0.03 0.04 0.05 0.07 0.07 0.08
0.13 0.08 0.07 0.08 0.08 0.09 0.10 0.08 0.09 0.09 0.09 0.09 0.09 0.10 0.12 0.12 0.11 0.13 0.17 0.22 0.23 0.19 0.14 0.12 0.10 0.10 0.09 0.08 0.10 0.09 0.09 0.09 0.08 0.06 0.06 0.06 0.04 0.03 0.03 0.03 0.04 0.06 0.07 0.09
0.09 0.08 0.08 0.08 0.08 0.08 0.09 0.08 0.07 0.07 0.07 0.07 0.08 0.08 0.09 0.10 0.09 0.12 0.17 0.23 0.20 0.15 0.12 0.10 0.10 0.08 0.07 0.06 0.06 0.07 0.07 0.06 0.06 0.05 0.04 0.04 0.03 0.03 0.03 0.03 0.04 0.06 0.07 0.08
0.08 0.08 0.10 0.10 0.10 0.09 0.09 0.08 0.07 0.07 0.07 0.07 0.07 0.07 0.09 0.10 0.10 0.11 0.13 0.15 0.13 0.10 0.09 0.08 0.08 0.07 0.06 0.05 0.03 0.04 0.05 0.05 0.04 0.04 0.04 0.03 0.03 0.03 0.04 0.05 0.05 0.05 0.05 0.07
0.09 0.09 0.10 0.10 0.10 0.09 0.08 0.09 0.09 0.08 0.07 0.07 0.06 0.07 0.09 0.10 0.10 0.09 0.09 0.07 0.06 0.06 0.07 0.08 0.07 0.06 0.05 0.04 0.03 0.03 0.04 0.05 0.04 0.04 0.03 0.03 0.03 0.03 0.03 0.04 0.05 0.05 0.05 0.06
0.12 0.11 0.10 0.09 0.10 0.11 0.11 0.10 0.08 0.07 0.07 0.06 0.05 0.05 0.06 0.07 0.10 0.08 0.07 0.06 0.05 0.04 0.04 0.05 0.06 0.05 0.04 0.03 0.02 0.03 0.03 0.03 0.03 0.03 0.03 0.03 0.03 0.03 0.03 0.04 0.04 0.04 0.04 0.04
0.17 0.15 0.12 0.10 0.12 0.14 0.11 0.08 0.07 0.06 0.05 0.05 0.04 0.04 0.04 0.04 0.05 0.05 0.04 0.04 0.04 0.04 0.03 0.03 0.03 0.04 0.03 0.03 0.03 0.03 0.02 0.02 0.02 0.02 0.02 0.02 0.02 0.01 0.02 0.03 0.04 0.03 0.03 0.04
0.25 0.20 0.16 0.15 0.13 0.11 0.08 0.08 0.07 0.06 0.06 0.05 0.04 0.03 0.03 0.04 0.04 0.05 0.04 0.04 0.04 0.04 0.03 0.02 0.02 0.03 0.03 0.03 0.03 0.02 0.02 0.02 0.02 0.02 0.01 0.01 0.01 0.01 0.02 0.03 0.03 0.03 0.03 0.04
0.40 0.30 0.24 0.20 0.15 0.11 0.10 0.10 0.08 0.05 0.05 0.05 0.05 0.04 0.04 0.05 0.05 0.04 0.03 0.03 0.03 0.03 0.02 0.02 0.02 0.02 0.02 0.03 0.02 0.02 0.02 0.02 0.01 0.01 0.01 0.02 0.02 0.02 0.02 0.02 0.02 0.03 0.03 0.03